GW1000 Weather Reports


Display with metric or nautical units.
time (UTC)temp
F
wind
direction
speed
MPH
gust
MPH
rain 1hr
in
rain 24hr
in
rain mn
in
humidity
%
barometer
mb
20260831120419 87 341 11.0 15.0 0.00 0.00 0.00 59 1005.7
20260831115914 87 346 14.0 18.0 0.00 0.00 0.00 59 1005.9
20260831115410 88 344 6.0 11.0 0.00 0.00 0.00 56 1005.7
20260831114910 87 342 11.0 15.0 0.00 0.00 0.00 55 1006.0
20260831114409 88 279 6.0 14.0 0.00 0.00 0.00 54 1005.9
20260831113905 87 297 7.0 9.0 0.00 0.00 0.00 56 1005.9
20260831113404 87 340 8.0 11.0 0.00 0.00 0.00 57 1005.8
20260831112859 88 354 9.0 16.0 0.00 0.00 0.00 55 1006.0
20260831112354 87 259 5.0 10.0 0.00 0.00 0.00 56 1005.9
20260831111849 88 341 10.0 14.0 0.00 0.00 0.00 55 1005.8
20260831111345 87 265 5.0 11.0 0.00 0.00 0.00 56 1005.7
20260831110841 87 295 6.0 10.0 0.00 0.00 0.00 55 1005.9
20260831110340 87 327 7.0 10.0 0.00 0.00 0.00 55 1006.0
20260831105839 88 345 10.0 14.0 0.00 0.00 0.00 53 1005.7
20260831105335 87 298 7.0 9.0 0.00 0.00 0.00 55 1006.0
20260831104830 87 259 7.0 10.0 0.00 0.00 0.00 55 1005.8
20260831104327 87 317 4.0 6.0 0.00 0.00 0.00 56 1005.9
20260831103826 87 246 5.0 7.0 0.00 0.00 0.00 57 1005.9
20260831103322 87 1 2.0 6.0 0.00 0.00 0.00 57 1006.0
20260831102817 86 309 2.0 7.0 0.00 0.00 0.00 58 1006.1
20260831102312 87 315 9.0 10.0 0.00 0.00 0.00 57 1006.2
20260831101808 87 279 5.0 7.0 0.00 0.00 0.00 57 1006.0
20260831101303 87 248 5.0 11.0 0.00 0.00 0.00 57 1006.1
20260831100759 87 254 11.0 13.0 0.00 0.00 0.00 57 1006.2
20260831100254 87 281 7.0 14.0 0.00 0.00 0.00 57 1006.3
20260831095754 89 262 8.0 11.0 0.00 0.00 0.00 56 1006.2
20260831095248 88 37 6.0 8.0 0.00 0.00 0.00 56 1006.1
20260831094743 88 278 5.0 8.0 0.00 0.00 0.00 56 1006.0
20260831094239 87 348 10.0 14.0 0.00 0.00 0.00 57 1006.1
20260831093735 87 325 9.0 16.0 0.00 0.00 0.00 57 1006.2
20260831093234 86 317 10.0 11.0 0.00 0.00 0.00 58 1006.2
20260831092731 86 262 3.0 6.0 0.00 0.00 0.00 58 1006.2
20260831092227 86 250 6.0 8.0 0.00 0.00 0.00 59 1006.5
20260831091726 86 346 9.0 13.0 0.00 0.00 0.00 58 1006.4
20260831091222 86 354 7.0 10.0 0.00 0.00 0.00 58 1006.3
20260831090717 85 345 4.0 7.0 0.00 0.00 0.00 60 1006.6
20260831090214 85 339 5.0 11.0 0.00 0.00 0.00 61 1006.4
20260831085709 85 341 9.0 11.0 0.00 0.00 0.00 61 1006.5
20260831085204 85 305 7.0 10.0 0.00 0.00 0.00 61 1006.5
20260831084659 86 87 2.0 5.0 0.00 0.00 0.00 60 1006.4
20260831084155 85 255 7.0 8.0 0.00 0.00 0.00 60 1006.5
20260831083651 85 342 4.0 6.0 0.00 0.00 0.00 61 1006.5
20260831083146 85 343 8.0 10.0 0.00 0.00 0.00 61 1006.5
20260831082644 84 0 5.0 8.0 0.00 0.00 0.00 62 1006.6
20260831082140 84 337 7.0 11.0 0.00 0.00 0.00 63 1006.7
20260831081636 86 278 10.0 11.0 0.00 0.00 0.00 62 1006.5
20260831081131 86 327 2.0 8.0 0.00 0.00 0.00 60 1006.6
20260831080627 86 264 3.0 6.0 0.00 0.00 0.00 60 1006.3
20260831080121 85 311 3.0 6.0 0.00 0.00 0.00 60 1006.6
20260831075617 85 270 7.0 10.0 0.00 0.00 0.00 59 1006.7
20260831075113 84 218 5.0 8.0 0.00 0.00 0.00 62 1006.8
20260831074612 84 4 3.0 8.0 0.00 0.00 0.00 62 1006.6
20260831074107 84 251 4.0 6.0 0.00 0.00 0.00 63 1006.6
20260831073602 84 339 5.0 9.0 0.00 0.00 0.00 63 1006.7
20260831073101 84 192 1.0 5.0 0.00 0.00 0.00 67 1006.6
20260831072556 83 337 7.0 9.0 0.00 0.00 0.00 67 1006.7
20260831072054 82 283 6.0 8.0 0.00 0.00 0.00 68 1006.7
20260831071551 82 309 4.0 5.0 0.00 0.00 0.00 70 1006.9
20260831071047 82 291 9.0 10.0 0.00 0.00 0.00 70 1006.7
20260831070546 82 235 4.0 6.0 0.00 0.00 0.00 71 1006.7
20260831070041 82 238 5.0 7.0 0.00 0.00 0.00 72 1006.6
20260831065538 82 282 2.0 6.0 0.00 0.00 0.00 72 1006.7
20260831065038 83 335 3.0 3.0 0.00 0.00 0.00 71 1006.5
20260831064533 82 355 2.0 7.0 0.00 0.00 0.00 72 1006.9
20260831064029 82 170 5.0 7.0 0.00 0.00 0.00 72 1006.6
20260831063525 81 166 3.0 7.0 0.00 0.00 0.00 74 1007.0
20260831063020 81 277 5.0 6.0 0.00 0.00 0.00 73 1006.7
20260831062515 81 242 4.0 6.0 0.00 0.00 0.00 73 1006.8
20260831062014 81 251 2.0 7.0 0.00 0.00 0.00 72 1006.8
20260831061512 81 235 7.0 8.0 0.00 0.00 0.00 72 1006.5
20260831061008 80 237 4.0 9.0 0.00 0.00 0.00 73 1006.6
20260831060503 81 233 5.0 7.0 0.00 0.00 0.00 74 1006.7
20260831060002 81 191 4.0 6.0 0.00 0.00 0.00 74 1006.5
20260831055457 81 215 6.0 10.0 0.00 0.00 0.00 74 1006.5
20260831054953 80 230 4.0 8.0 0.00 0.00 0.00 74 1006.5
20260831054448 81 214 2.0 8.0 0.00 0.00 0.00 74 1006.4
20260831053947 81 262 2.0 7.0 0.00 0.00 0.00 74 1006.5
20260831053445 80 187 4.0 7.0 0.00 0.00 0.00 74 1006.4
20260831052939 80 236 4.0 9.0 0.00 0.00 0.00 74 1006.4
20260831052434 80 237 7.0 8.0 0.00 0.00 0.00 74 1006.2
20260831051932 80 251 5.0 8.0 0.00 0.00 0.00 74 1006.4
20260831051431 80 229 3.0 6.0 0.00 0.00 0.00 74 1006.3
20260831050926 80 245 3.0 8.0 0.00 0.00 0.00 75 1006.5
20260831050425 80 246 5.0 7.0 0.00 0.00 0.00 75 1006.4
20260831045923 79 270 4.0 6.0 0.00 0.00 0.00 76 1006.4
20260831045418 79 151 4.0 5.0 0.00 0.00 0.00 76 1006.1
20260831044913 79 231 2.0 7.0 0.00 0.00 0.00 77 1006.2
20260831044408 79 196 2.0 6.0 0.00 0.00 0.00 77 1006.4
20260831043904 78 236 7.0 7.0 0.00 0.00 0.00 77 1006.1
20260831043403 78 234 3.0 5.0 0.00 0.00 0.00 78 1006.3
20260831042859 78 219 2.0 3.0 0.00 0.00 0.00 78 1006.3
20260831042358 78 220 1.0 2.0 0.00 0.00 0.00 79 1006.3
20260831041853 77 95 1.0 1.0 0.00 0.00 0.00 80 1006.5
20260831041352 77 57 0.0 1.0 0.00 0.00 0.00 80 1006.0
20260831040847 77 29 0.0 0.0 0.00 0.00 0.00 81 1006.2
20260831040342 77 34 0.0 0.0 0.00 0.00 0.00 81 1006.2
20260831035840 76 29 0.0 1.0 0.00 0.00 0.00 81 1005.9
20260831035339 76 37 0.0 1.0 0.00 0.00 0.00 81 1006.1
20260831034834 76 53 1.0 1.0 0.00 0.00 0.00 81 1006.3
20260831034329 76 52 0.0 0.0 0.00 0.00 0.00 81 1006.2
20260831033825 76 37 0.0 1.0 0.00 0.00 0.00 81 1006.1
20260831033324 76 34 0.0 1.0 0.00 0.00 0.00 81 1006.0
20260831032820 76 48 0.0 0.0 0.00 0.00 0.00 81 1005.8
20260831032314 76 25 0.0 1.0 0.00 0.00 0.00 81 1005.8
20260831031810 77 51 0.0 0.0 0.00 0.00 0.00 81 1005.8
20260831031309 77 101 1.0 1.0 0.00 0.00 0.00 81 1005.7
20260831030804 77 159 1.0 2.0 0.00 0.00 0.00 81 1005.8
20260831030302 77 57 0.0 1.0 0.00 0.00 0.00 80 1005.8
20260831025756 77 113 0.0 1.0 0.00 0.00 0.00 80 1005.9
20260831025250 77 56 0.0 0.0 0.00 0.00 0.00 80 1005.8
20260831024746 77 76 0.0 0.0 0.00 0.00 0.00 80 1005.7
20260831024245 77 158 1.0 1.0 0.00 0.00 0.00 80 1005.8
20260831023744 77 142 1.0 2.0 0.00 0.00 0.00 80 1005.7
20260831023243 77 317 0.0 1.0 0.00 0.00 0.00 80 1005.8
20260831022738 77 207 1.0 2.0 0.00 0.00 0.00 80 1005.8
20260831022237 77 241 1.0 2.0 0.00 0.00 0.00 80 1005.7
20260831021733 77 225 1.0 3.0 0.00 0.00 0.00 80 1005.6
20260831021232 77 183 2.0 2.0 0.00 0.00 0.00 80 1005.5
20260831020729 77 194 1.0 2.0 0.00 0.00 0.00 80 1005.6
20260831020227 77 95 1.0 2.0 0.00 0.00 0.00 80 1005.8
20260831015723 77 26 1.0 1.0 0.00 0.00 0.00 80 1005.5
20260831015219 77 203 3.0 3.0 0.00 0.00 0.00 80 1005.7
20260831014714 77 169 1.0 2.0 0.00 0.00 0.00 79 1005.6
20260831014209 77 214 1.0 2.0 0.00 0.00 0.00 79 1005.5
20260831013705 77 254 1.0 3.0 0.00 0.00 0.00 79 1005.7
20260831013204 77 309 2.0 2.0 0.00 0.00 0.00 79 1005.6
20260831012659 77 326 1.0 1.0 0.00 0.00 0.00 79 1005.5
20260831012155 77 288 1.0 2.0 0.00 0.00 0.00 79 1005.5
20260831011653 77 231 1.0 3.0 0.00 0.00 0.00 79 1005.6
20260831011144 77 207 4.0 6.0 0.00 0.00 0.00 79 1005.6
20260831010639 78 170 4.0 6.0 0.00 0.00 0.00 79 1005.4
20260831010134 78 200 4.0 6.0 0.00 0.00 0.00 79 1005.5
20260831005628 78 189 2.0 5.0 0.00 0.00 0.00 78 1005.6
20260831005118 78 205 3.0 5.0 0.00 0.00 0.00 78 1005.5
20260831004614 78 158 2.0 3.0 0.00 0.00 0.00 78 1005.5
20260831004109 78 217 4.0 5.0 0.00 0.00 0.00 78 1005.5
20260831003605 78 202 2.0 3.0 0.00 0.00 0.00 78 1005.6
20260831003101 78 178 3.0 5.0 0.00 0.00 0.00 78 1005.8
20260831002559 78 201 2.0 5.0 0.00 0.00 0.00 78 1005.3
20260831002055 78 193 3.0 6.0 0.00 0.00 0.00 78 1005.7
20260831001550 78 194 4.0 5.0 0.00 0.00 0.00 78 1005.7
20260831001047 78 196 2.0 3.0 0.00 0.00 0.00 78 1005.5
20260831000543 78 183 3.0 5.0 0.00 0.00 0.00 78 1005.7
20260831000042 78 183 3.0 5.0 0.00 0.00 0.00 78 1005.5
20260830235541 78 211 2.0 3.0 0.00 0.00 0.00 78 1005.7
20260830235036 78 210 3.0 3.0 0.00 0.00 0.00 78 1005.5
20260830234531 78 196 2.0 3.0 0.00 0.00 0.00 78 1005.5
20260830234026 78 208 2.0 3.0 0.00 0.00 0.00 78 1005.4
20260830233521 78 183 1.0 2.0 0.00 0.00 0.00 78 1005.5
20260830233018 78 204 1.0 3.0 0.00 0.00 0.00 78 1005.5
20260830232513 78 180 4.0 5.0 0.00 0.00 0.00 78 1005.4
20260830232009 78 184 3.0 3.0 0.00 0.00 0.00 78 1005.4
20260830231505 78 185 3.0 3.0 0.00 0.00 0.00 77 1005.4
20260830231004 79 179 3.0 5.0 0.00 0.00 0.00 77 1005.4
20260830230500 79 173 0.0 3.0 0.00 0.00 0.00 77 1005.3
20260830225958 79 193 4.0 6.0 0.00 0.00 0.00 76 1005.5
20260830225455 79 190 3.0 3.0 0.00 0.00 0.00 76 1005.5
20260830224954 79 140 1.0 2.0 0.00 0.00 0.00 76 1005.6
20260830224452 79 279 1.0 2.0 0.00 0.00 0.00 75 1005.5
20260830223949 79 184 2.0 3.0 0.00 0.00 0.00 75 1005.5
20260830223446 79 204 3.0 3.0 0.00 0.00 0.00 75 1005.6
20260830222944 80 230 3.0 3.0 0.00 0.00 0.00 75 1005.6
20260830222440 80 237 3.0 3.0 0.00 0.00 0.00 75 1005.7
20260830221930 80 109 1.0 6.0 0.00 0.00 0.00 74 1005.6
20260830221426 80 240 3.0 5.0 0.00 0.00 0.00 74 1005.5
20260830220921 80 227 3.0 5.0 0.00 0.00 0.00 73 1005.5
20260830220416 80 166 3.0 5.0 0.00 0.00 0.00 73 1005.5
20260830215913 80 254 3.0 3.0 0.00 0.00 0.00 73 1005.7
20260830215409 80 249 3.0 3.0 0.00 0.00 0.00 73 1005.8
20260830214903 80 303 3.0 3.0 0.00 0.00 0.00 72 1005.6
20260830214358 80 24 1.0 2.0 0.00 0.00 0.00 72 1005.4
20260830213853 80 288 2.0 3.0 0.00 0.00 0.00 72 1005.6
20260830213348 80 238 2.0 3.0 0.00 0.00 0.00 72 1005.7
20260830212844 80 347 1.0 2.0 0.00 0.00 0.00 72 1005.6
20260830212339 80 241 3.0 3.0 0.00 0.00 0.00 72 1005.6
20260830211838 80 128 1.0 2.0 0.00 0.00 0.00 72 1005.5
20260830211332 80 276 1.0 2.0 0.00 0.00 0.00 72 1005.8
20260830210828 80 210 2.0 3.0 0.00 0.00 0.00 72 1005.6
20260830210327 80 262 2.0 3.0 0.00 0.00 0.00 72 1005.6
20260830205826 80 232 2.0 2.0 0.00 0.00 0.00 72 1005.6
20260830205320 80 246 2.0 2.0 0.00 0.00 0.00 72 1005.8
20260830204815 80 223 1.0 1.0 0.00 0.00 0.00 73 1005.9
20260830204314 80 238 2.0 2.0 0.00 0.00 0.00 73 1005.7
20260830203810 80 298 2.0 2.0 0.00 0.00 0.00 72 1005.8
20260830203306 80 310 2.0 3.0 0.00 0.00 0.00 72 1005.6
20260830202805 80 333 1.0 2.0 0.00 0.00 0.00 73 1005.7
20260830202300 80 303 3.0 3.0 0.00 0.00 0.00 73 1005.6
20260830201800 80 10 1.0 2.0 0.00 0.00 0.00 73 1005.5
20260830201249 80 244 2.0 3.0 0.00 0.00 0.00 73 1005.4
20260830200744 80 258 2.0 3.0 0.00 0.00 0.00 73 1005.7
20260830200243 80 284 2.0 3.0 0.00 0.00 0.00 73 1005.7
20260830195739 81 304 3.0 5.0 0.00 0.00 0.00 73 1005.6
20260830195237 81 247 3.0 3.0 0.00 0.00 0.00 73 1005.8
20260830194736 81 250 2.0 2.0 0.00 0.00 0.00 73 1005.4
20260830194231 81 339 3.0 5.0 0.00 0.00 0.00 74 1005.4
20260830193726 81 251 4.0 5.0 0.00 0.00 0.00 73 1005.5
20260830193220 81 281 3.0 5.0 0.00 0.00 0.00 73 1005.4
20260830192716 81 237 3.0 3.0 0.00 0.00 0.00 73 1005.7
20260830192211 81 249 2.0 3.0 0.00 0.00 0.00 73 1005.5
20260830191707 81 295 3.0 3.0 0.00 0.00 0.00 73 1005.6
20260830191201 81 269 3.0 3.0 0.00 0.00 0.00 73 1005.8
20260830190656 81 293 3.0 5.0 0.00 0.00 0.00 73 1005.8
20260830190152 81 256 3.0 3.0 0.00 0.00 0.00 73 1005.7
20260830185650 81 260 3.0 5.0 0.00 0.00 0.00 73 1005.6
20260830185146 81 251 2.0 3.0 0.00 0.00 0.00 73 1005.7
20260830184645 81 263 3.0 6.0 0.00 0.00 0.00 73 1005.9
20260830184139 81 302 3.0 6.0 0.00 0.00 0.00 73 1005.5
20260830183640 81 274 6.0 7.0 0.00 0.00 0.00 73 1005.5
20260830183135 81 238 2.0 5.0 0.00 0.00 0.00 72 1005.7
20260830182635 81 350 1.0 5.0 0.00 0.00 0.00 72 1005.7
20260830182131 81 266 3.0 5.0 0.00 0.00 0.00 72 1005.7
20260830181627 81 296 3.0 5.0 0.00 0.00 0.00 72 1005.6
20260830181126 81 282 3.0 3.0 0.00 0.00 0.00 72 1005.3
20260830180626 81 314 2.0 5.0 0.00 0.00 0.00 72 1005.6
20260830180121 81 269 3.0 5.0 0.00 0.00 0.00 72 1005.3
20260830175619 81 285 3.0 3.0 0.00 0.00 0.00 72 1005.3
20260830175115 81 272 2.0 3.0 0.00 0.00 0.00 73 1005.5
20260830174610 81 270 2.0 5.0 0.00 0.00 0.00 73 1005.5
20260830174106 81 244 5.0 7.0 0.00 0.00 0.00 73 1005.5
20260830173601 81 280 5.0 8.0 0.00 0.00 0.00 73 1005.5
20260830173055 82 296 4.0 7.0 0.00 0.00 0.00 73 1005.5
20260830172553 82 243 4.0 6.0 0.00 0.00 0.00 73 1005.4
20260830172049 82 273 4.0 6.0 0.00 0.00 0.00 73 1005.5
20260830171544 82 295 3.0 7.0 0.00 0.00 0.00 73 1005.2
20260830171038 82 277 3.0 5.0 0.00 0.00 0.00 73 1005.2
20260830170533 82 315 3.0 8.0 0.00 0.00 0.00 73 1005.2
20260830170032 82 239 6.0 8.0 0.00 0.00 0.00 73 1005.1
20260830165527 82 311 5.0 6.0 0.00 0.00 0.00 73 1004.9
20260830165023 82 256 3.0 7.0 0.00 0.00 0.00 73 1005.2
20260830164519 82 289 4.0 8.0 0.00 0.00 0.00 72 1004.8
20260830164015 82 14 5.0 8.0 0.00 0.00 0.00 72 1004.9
20260830163511 82 255 6.0 8.0 0.00 0.00 0.00 72 1004.7
20260830163010 82 300 7.0 8.0 0.00 0.00 0.00 72 1004.8
20260830162506 82 257 5.0 8.0 0.00 0.00 0.00 72 1004.7
20260830162001 82 227 6.0 9.0 0.00 0.00 0.00 71 1004.8
20260830161455 82 256 6.0 9.0 0.00 0.00 0.00 71 1004.7
20260830160950 82 295 6.0 7.0 0.00 0.00 0.00 70 1004.6
20260830160446 82 299 5.0 7.0 0.00 0.00 0.00 69 1004.6
20260830155940 83 248 4.0 7.0 0.00 0.00 0.00 69 1004.8
20260830155437 83 281 4.0 7.0 0.00 0.00 0.00 69 1004.5
20260830154933 83 247 7.0 10.0 0.00 0.00 0.00 69 1004.6
20260830154428 83 245 6.0 9.0 0.00 0.00 0.00 69 1004.6
20260830153925 83 242 9.0 14.0 0.00 0.00 0.00 68 1004.7
20260830153420 83 250 6.0 9.0 0.00 0.00 0.00 67 1004.5
20260830152919 83 325 5.0 9.0 0.00 0.00 0.00 67 1004.5
20260830152414 83 239 7.0 10.0 0.00 0.00 0.00 67 1004.7
20260830151907 83 218 3.0 11.0 0.00 0.00 0.00 66 1004.7
20260830151402 83 246 7.0 9.0 0.00 0.00 0.00 65 1004.6
20260830150857 84 267 8.0 9.0 0.00 0.00 0.00 65 1004.5
20260830150356 84 265 6.0 7.0 0.00 0.00 0.00 64 1004.6
20260830145851 84 255 7.0 10.0 0.00 0.00 0.00 64 1004.5
20260830145346 84 242 8.0 9.0 0.00 0.00 0.00 64 1004.8
20260830144841 84 305 5.0 7.0 0.00 0.00 0.00 64 1004.8
20260830144337 85 277 8.0 16.0 0.00 0.00 0.00 62 1004.8
20260830143832 85 315 4.0 11.0 0.00 0.00 0.00 61 1004.5
20260830143332 85 255 12.0 16.0 0.00 0.00 0.00 60 1004.6
20260830142826 86 297 5.0 13.0 0.00 0.00 0.00 59 1004.7
20260830142321 85 233 4.0 9.0 0.00 0.00 0.00 59 1004.7
20260830141816 86 243 11.0 15.0 0.00 0.00 0.00 59 1004.7
20260830141311 87 305 8.0 9.0 0.00 0.00 0.00 56 1004.6
20260830140806 86 288 9.0 13.0 0.00 0.00 0.00 56 1004.6
20260830140301 87 252 11.0 15.0 0.00 0.00 0.00 53 1004.5
20260830135755 87 233 11.0 14.0 0.00 0.00 0.00 52 1004.6
20260830135251 86 319 8.0 10.0 0.00 0.00 0.00 52 1004.4
20260830134747 86 247 5.0 11.0 0.00 0.00 0.00 54 1004.5
20260830134241 87 254 7.0 10.0 0.00 0.00 0.00 52 1004.5
20260830133737 87 279 6.0 13.0 0.00 0.00 0.00 55 1004.4
20260830133233 87 269 9.0 11.0 0.00 0.00 0.00 52 1004.4
20260830132728 87 290 6.0 13.0 0.00 0.00 0.00 53 1004.4
20260830132224 87 254 12.0 16.0 0.00 0.00 0.00 53 1004.1
20260830131723 87 327 7.0 9.0 0.00 0.00 0.00 54 1004.4
20260830131217 88 239 7.0 15.0 0.00 0.00 0.00 51 1004.4
20260830130712 87 244 9.0 13.0 0.00 0.00 0.00 51 1004.3
20260830130212 87 274 7.0 10.0 0.00 0.00 0.00 50 1004.3
20260830125712 87 270 11.0 14.0 0.00 0.00 0.00 50 1004.3
20260830125207 87 315 6.0 11.0 0.00 0.00 0.00 54 1004.3
20260830124705 87 291 7.0 13.0 0.00 0.00 0.00 55 1004.5
20260830124200 87 246 5.0 14.0 0.00 0.00 0.00 55 1004.4
20260830123657 86 276 9.0 15.0 0.00 0.00 0.00 56 1004.3
20260830123147 87 22 13.0 14.0 0.00 0.00 0.00 55 1004.2
20260830122644 87 253 9.0 13.0 0.00 0.00 0.00 56 1004.3
20260830122139 87 333 9.0 13.0 0.00 0.00 0.00 52 1004.3
20260830121635 87 246 8.0 10.0 0.00 0.00 0.00 54 1004.3
20260830121134 87 279 10.0 15.0 0.00 0.00 0.00 51 1004.5